Location: *
(43.6428°N, 11.5461°E)
Time: 15:25:08
(UTC+00:00)

Ariane Rocket - Pass Details

Date: 21 October 2019
Orbit: 760 x 770 km, 98.8° (Epoch: 19 November)

Event Time Altitude Azimuth Distance (km) Brightness Sun altitude
Exits shadow 17:35:44 - 141° (SE) 2,737 5.5 -14.1°
Reaches altitude 10° 17:36:52 10° 137° (SE) 2,307 5.1 -14.3°
Maximum altitude 17:41:36 41° 68° (ENE) 1,111 3.4 -15.2°
Drops below altitude 10° 17:46:22 10° 360° (N) 2,324 5.5 -16.1°
Sets 17:48:47 0° 353° (N) 3,255 6.4 -16.5°
